• In Belarus
  • List of Countries
  • For 7 days
  • Water Temperature
  • Weather Map
  • Weather Widgets
  • user-avatar
    Login

    Hourly Weather Batina

    Today, 5 June, Friday

    Time Temperature Precipitation Wind Pressure Humidity
    00:00 +20°C° 0 mm 2 mps 667 mmHg 52%
    01:00 +19°C° 0 mm 2 mps 666 mmHg 56%
    02:00 +18°C° 0 mm 3 mps 666 mmHg 60%
    03:00 +17°C° 0 mm 3 mps 666 mmHg 63%
    04:00 +16°C° 0 mm 5 mps 666 mmHg 60%
    05:00 +16°C° 0 mm 6 mps 666 mmHg 57%
    06:00 +16°C° 0 mm 7 mps 666 mmHg 53%
    07:00 +17°C° 0 mm 8 mps 667 mmHg 47%
    08:00 +18°C° 0 mm 9 mps 667 mmHg 41%
    09:00 +19°C° 0 mm 10 mps 668 mmHg 36%
    10:00 +21°C° 0 mm 9 mps 669 mmHg 34%
    11:00 +22°C° 0 mm 8 mps 669 mmHg 32%
    12:00 +23°C° 0 mm 8 mps 670 mmHg 30%
    13:00 +23°C° 0 mm 7 mps 670 mmHg 29%
    14:00 +24°C° 0 mm 6 mps 670 mmHg 29%
    15:00 +24°C° 0 mm 6 mps 670 mmHg 29%
    16:00 +23°C° 0 mm 5 mps 670 mmHg 30%
    17:00 +23°C° 0 mm 5 mps 670 mmHg 31%
    18:00 +22°C° 0 mm 4 mps 670 mmHg 32%
    19:00 +21°C° 0 mm 3 mps 670 mmHg 37%
    20:00 +19°C° 0 mm 2 mps 670 mmHg 42%
    21:00 +19°C° 0 mm 1 mps 670 mmHg 47%
    22:00 +19°C° 0 mm 1 mps 670 mmHg 48%
    23:00 +18°C° 0 mm 1 mps 670 mmHg 49%

    Tomorrow, 6 June, Saturday

    Time Temperature Precipitation Wind Pressure Humidity
    00:00 +18°C° 0 mm 1 mps 670 mmHg 49%
    01:00 +16°C° 0 mm 1 mps 670 mmHg 51%
    02:00 +16°C° 0 mm 1 mps 669 mmHg 53%
    03:00 +15°C° 0 mm 1 mps 669 mmHg 54%
    04:00 +15°C° 0 mm 0 mps 670 mmHg 50%
    05:00 +16°C° 0 mm 0 mps 670 mmHg 45%
    06:00 +17°C° 0 mm 0 mps 670 mmHg 40%
    07:00 +21°C° 0 mm 1 mps 671 mmHg 35%
    08:00 +22°C° 0 mm 1 mps 671 mmHg 30%
    09:00 +24°C° 0 mm 2 mps 672 mmHg 25%
    10:00 +25°C° 0 mm 3 mps 672 mmHg 24%
    11:00 +26°C° 0 mm 4 mps 672 mmHg 22%
    12:00 +27°C° 0 mm 5 mps 672 mmHg 21%
    13:00 +28°C° 0 mm 5 mps 672 mmHg 20%
    14:00 +28°C° 0 mm 6 mps 671 mmHg 20%
    15:00 +28°C° 0 mm 6 mps 671 mmHg 19%
    16:00 +28°C° 0 mm 5 mps 671 mmHg 21%
    17:00 +27°C° 0 mm 4 mps 670 mmHg 23%
    18:00 +27°C° 0 mm 3 mps 670 mmHg 24%
    19:00 +26°C° 0 mm 2 mps 670 mmHg 26%
    20:00 +25°C° 0 mm 2 mps 670 mmHg 27%
    21:00 +25°C° 0 mm 2 mps 670 mmHg 29%
    22:00 +24°C° 0 mm 2 mps 669 mmHg 29%
    23:00 +24°C° 0 mm 2 mps 669 mmHg 30%

    Day after tomorrow, 7 June, Sunday

    Time Temperature Precipitation Wind Pressure Humidity
    00:00 +24°C° 0 mm 2 mps 668 mmHg 30%
    01:00 +24°C° 0 mm 2 mps 668 mmHg 31%
    02:00 +22°C° 0 mm 3 mps 668 mmHg 33%
    03:00 +22°C° 0 mm 3 mps 667 mmHg 34%
    04:00 +24°C° 0 mm 3 mps 667 mmHg 34%
    05:00 +24°C° 0 mm 3 mps 668 mmHg 34%
    06:00 +24°C° 0 mm 3 mps 668 mmHg 34%
    07:00 +26°C° 0.1 mm 4 mps 668 mmHg 34%
    08:00 +27°C° 0.1 mm 5 mps 669 mmHg 33%
    09:00 +28°C° 0.1 mm 6 mps 670 mmHg 32%
    10:00 +29°C° 0 mm 6 mps 670 mmHg 31%
    11:00 +30°C° 0 mm 6 mps 670 mmHg 30%
    12:00 +30°C° 0 mm 6 mps 669 mmHg 29%
    13:00 +30°C° 0 mm 6 mps 669 mmHg 29%
    14:00 +30°C° 0 mm 6 mps 669 mmHg 28%
    15:00 +30°C° 0 mm 6 mps 669 mmHg 28%
    16:00 +28°C° 0 mm 6 mps 669 mmHg 35%
    17:00 +26°C° 0 mm 6 mps 668 mmHg 42%
    18:00 +23°C° 0 mm 6 mps 668 mmHg 49%
    19:00 +22°C° 0 mm 5 mps 668 mmHg 52%
    20:00 +21°C° 0 mm 5 mps 668 mmHg 54%
    21:00 +19°C° 0 mm 5 mps 668 mmHg 56%
    22:00 +19°C° 0 mm 4 mps 668 mmHg 58%
    23:00 +19°C° 0 mm 3 mps 668 mmHg 59%

    8 June, Monday

    Time Temperature Precipitation Wind Pressure Humidity
    00:00 +18°C° 0 mm 3 mps 668 mmHg 60%
    01:00 +18°C° 0 mm 2 mps 668 mmHg 62%
    02:00 +18°C° 0 mm 2 mps 667 mmHg 63%
    03:00 +19°C° 0 mm 1 mps 667 mmHg 65%
    04:00 +19°C° 0 mm 1 mps 667 mmHg 60%
    05:00 +20°C° 0 mm 1 mps 668 mmHg 56%
    06:00 +21°C° 0 mm 1 mps 668 mmHg 52%
    07:00 +23°C° 0 mm 1 mps 668 mmHg 44%
    08:00 +24°C° 0 mm 1 mps 669 mmHg 37%
    09:00 +26°C° 0 mm 2 mps 669 mmHg 29%
    10:00 +27°C° 0 mm 3 mps 669 mmHg 28%
    11:00 +28°C° 0 mm 4 mps 669 mmHg 26%
    12:00 +29°C° 0 mm 4 mps 669 mmHg 24%
    13:00 +29°C° 0 mm 5 mps 669 mmHg 24%
    14:00 +29°C° 0 mm 6 mps 669 mmHg 24%
    15:00 +30°C° 0 mm 7 mps 669 mmHg 24%
    16:00 +28°C° 0 mm 6 mps 668 mmHg 28%
    17:00 +27°C° 0 mm 6 mps 668 mmHg 33%
    18:00 +24°C° 0 mm 6 mps 668 mmHg 37%
    19:00 +22°C° 0.1 mm 5 mps 668 mmHg 49%
    20:00 +20°C° 0.1 mm 5 mps 668 mmHg 60%
    21:00 +17°C° 0.1 mm 5 mps 668 mmHg 71%
    22:00 +17°C° 0 mm 4 mps 668 mmHg 71%
    23:00 +17°C° 0 mm 4 mps 668 mmHg 71%

    9 June, Tuesday

    Time Temperature Precipitation Wind Pressure Humidity
    00:00 +15°C° 0 mm 4 mps 668 mmHg 71%
    01:00 +17°C° 0.1 mm 3 mps 668 mmHg 70%
    02:00 +17°C° 0.1 mm 3 mps 668 mmHg 69%
    03:00 +17°C° 0.1 mm 2 mps 667 mmHg 69%
    04:00 +17°C° 0 mm 2 mps 668 mmHg 67%
    05:00 +18°C° 0 mm 2 mps 668 mmHg 65%
    06:00 +18°C° 0 mm 2 mps 669 mmHg 63%
    07:00 +19°C° 0 mm 2 mps 669 mmHg 57%
    08:00 +21°C° 0 mm 2 mps 669 mmHg 51%
    09:00 +23°C° 0 mm 2 mps 670 mmHg 45%
    10:00 +24°C° 0 mm 2 mps 670 mmHg 41%
    11:00 +25°C° 0 mm 3 mps 670 mmHg 36%
    12:00 +26°C° 0 mm 3 mps 670 mmHg 31%
    13:00 +27°C° 0 mm 4 mps 670 mmHg 31%
    14:00 +27°C° 0 mm 5 mps 670 mmHg 30%
    15:00 +27°C° 0 mm 6 mps 670 mmHg 29%
    16:00 +24°C° 0.7 mm 6 mps 670 mmHg 37%
    17:00 +23°C° 0.7 mm 5 mps 669 mmHg 46%
    18:00 +21°C° 0.7 mm 5 mps 669 mmHg 55%
    19:00 +20°C° 0.1 mm 4 mps 670 mmHg 62%
    20:00 +19°C° 0.1 mm 4 mps 670 mmHg 69%
    21:00 +17°C° 0.1 mm 3 mps 671 mmHg 75%
    22:00 +17°C° 0 mm 3 mps 671 mmHg 77%
    23:00 +17°C° 0 mm 3 mps 670 mmHg 78%

    10 June, Wednesday

    Time Temperature Precipitation Wind Pressure Humidity
    00:00 +16°C° 0 mm 3 mps 670 mmHg 79%
    01:00 +16°C° 0 mm 2 mps 670 mmHg 79%
    02:00 +16°C° 0 mm 2 mps 670 mmHg 79%
    03:00 +16°C° 0 mm 1 mps 669 mmHg 79%
    04:00 +16°C° 0 mm 1 mps 670 mmHg 75%
    05:00 +17°C° 0 mm 2 mps 670 mmHg 71%
    06:00 +17°C° 0 mm 2 mps 670 mmHg 68%
    07:00 +19°C° 0 mm 2 mps 671 mmHg 61%
    08:00 +20°C° 0 mm 3 mps 671 mmHg 54%
    09:00 +21°C° 0 mm 3 mps 672 mmHg 47%
    10:00 +23°C° 0.1 mm 4 mps 672 mmHg 45%
    11:00 +25°C° 0.1 mm 5 mps 672 mmHg 43%
    12:00 +26°C° 0.1 mm 6 mps 672 mmHg 41%
    13:00 +24°C° 0.4 mm 6 mps 672 mmHg 42%
    14:00 +24°C° 0.4 mm 7 mps 671 mmHg 44%
    15:00 +23°C° 0.4 mm 7 mps 671 mmHg 45%
    16:00 +23°C° 0.5 mm 5 mps 671 mmHg 46%
    17:00 +22°C° 0.5 mm 3 mps 671 mmHg 48%
    18:00 +23°C° 0.5 mm 1 mps 671 mmHg 49%
    19:00 +22°C° 0.3 mm 1 mps 671 mmHg 53%
    20:00 +21°C° 0.3 mm 1 mps 671 mmHg 57%
    21:00 +20°C° 0.3 mm 1 mps 671 mmHg 61%
    22:00 +19°C° 0.7 mm 2 mps 671 mmHg 65%
    23:00 +18°C° 0.7 mm 2 mps 671 mmHg 69%
    Show more